星链-34939 (STARLINK-34939)

导读

STARLINK-34939是美国太空探索技术公司星链星座的组网卫星,于2025年8月14日发射升空。作为星链低轨互联网星座的组成部分,它承担着为全球提供高速卫星互联网接入服务的任务,进一步扩充了星链星座的在轨规模,助力美国完成近地轨道大规模卫星星座的部署推进。

基本信息
目录编号:
65183
目录名称:
STARLINK-34939
国际标识:
2025-175K
轨道中心:
EARTH
卫星名称:
星链-34939
卫星全名:
星链-34939 (STARLINK-34939)
卫星状态:
在轨 (已飞行303 天)
发射日期:
2025-08-14 UTC
国别 :
美国 (US)
星等 :
--
轨道信息
数据来源 国际轨道数据
星历时间: 2026-06-13T13:15:53+0800
10小时前
查看轨道信息
半长轴: 6927.609km
偏心率: 0.000235
轨道倾角: 97.368°
近地点辐角 78.042°
升交点赤经 35.936°
平近点角 282.107°
近地点: 547.844km
远地点: 551.1km
周期: 95.639分钟
每日圈数: 15.056629
详细信息
固有亮度:
5
最大亮度:
2.5
卫星平台:
Starlink V1.0
覆盖范围:
全球
运营商:
太空探索技术公司
运营商所在国:
美国
制造商(研发单位):
太空探索技术公司
制造商所在国:
美国
使用方式:
暂无
卫星简介
Starlink 计划是 SpaceX 推出的全球卫星互联网项目,通过发射低轨道卫星,为全球尤其是偏远地区提供高速、低延迟的互联网服务。自 2019 年起,Starlink 已部署数千颗卫星,旨在缩小全球数字鸿沟,推动互联网普及。该项目还为军事、航空等行业提供通信支持,带来广泛经济效益。
2D轨道图
3D轨道图
轨道高度分析图
轨道倾角分析图
轨道综合分析图
查看轨道综合分析图